• In Uzbekistan
  • List of Countries
  • For 7 days
  • Water Temperature
  • Satellite Maps
  • Weather Map
  • Weather Widgets
  • user-avatar
    Login

    Hourly Weather Jeziorko

    Today, 19 February, Tuesday

    Time Temperature Precipitation Wind Pressure Humidity
    00:00 +4°C° 0 mm 2 mps 748 mmHg 84%
    01:00 +4°C° 0 mm 2 mps 748 mmHg 85%
    02:00 +3°C° 0 mm 2 mps 747 mmHg 85%
    03:00 +3°C° 0 mm 2 mps 747 mmHg 86%
    04:00 +3°C° 0 mm 2 mps 746 mmHg 86%
    05:00 +2°C° 0 mm 3 mps 746 mmHg 87%
    06:00 +2°C° 0 mm 3 mps 746 mmHg 87%
    07:00 +2°C° 0 mm 2 mps 745 mmHg 89%
    08:00 +2°C° 0 mm 3 mps 745 mmHg 85%
    09:00 +3°C° 0 mm 4 mps 745 mmHg 82%
    10:00 +5°C° 0 mm 5 mps 746 mmHg 78%
    11:00 +6°C° 0 mm 5 mps 746 mmHg 76%
    12:00 +7°C° 0 mm 5 mps 746 mmHg 75%
    13:00 +8°C° 0 mm 5 mps 746 mmHg 73%
    14:00 +7°C° 0.1 mm 5 mps 746 mmHg 73%
    15:00 +7°C° 0.1 mm 5 mps 746 mmHg 74%
    16:00 +7°C° 0.1 mm 5 mps 746 mmHg 74%
    17:00 +6°C° 0.1 mm 5 mps 746 mmHg 76%
    18:00 +5°C° 0.1 mm 4 mps 746 mmHg 78%
    19:00 +5°C° 0.1 mm 4 mps 746 mmHg 81%
    20:00 +4°C° 0 mm 4 mps 746 mmHg 82%
    21:00 +4°C° 0 mm 4 mps 746 mmHg 83%
    22:00 +3°C° 0 mm 5 mps 746 mmHg 84%
    23:00 +3°C° 0 mm 5 mps 747 mmHg 85%

    Tomorrow, 20 February, Wednesday

    Time Temperature Precipitation Wind Pressure Humidity
    00:00 +3°C° 0 mm 5 mps 747 mmHg 85%
    01:00 +3°C° 0 mm 5 mps 747 mmHg 85%
    02:00 +3°C° 0 mm 5 mps 747 mmHg 84%
    03:00 +3°C° 0 mm 5 mps 747 mmHg 84%
    04:00 +2°C° 0 mm 6 mps 747 mmHg 83%
    05:00 +2°C° 0.1 mm 6 mps 748 mmHg 82%
    06:00 +2°C° 0.1 mm 6 mps 748 mmHg 82%
    07:00 +2°C° 0.1 mm 6 mps 748 mmHg 81%
    08:00 +2°C° 0.1 mm 5 mps 749 mmHg 81%
    09:00 +3°C° 0.1 mm 5 mps 749 mmHg 80%
    10:00 +3°C° 0.1 mm 5 mps 750 mmHg 80%
    11:00 +3°C° 0.1 mm 5 mps 750 mmHg 78%
    12:00 +3°C° 0.1 mm 5 mps 750 mmHg 76%
    13:00 +5°C° 0.1 mm 5 mps 750 mmHg 74%
    14:00 +5°C° 0 mm 5 mps 751 mmHg 75%
    15:00 +5°C° 0 mm 4 mps 751 mmHg 75%
    16:00 +5°C° 0 mm 4 mps 751 mmHg 76%
    17:00 +5°C° 0.1 mm 3 mps 752 mmHg 79%
    18:00 +4°C° 0.1 mm 3 mps 752 mmHg 82%
    19:00 +5°C° 0.1 mm 2 mps 752 mmHg 86%
    20:00 +5°C° 0 mm 2 mps 752 mmHg 87%
    21:00 +5°C° 0 mm 2 mps 752 mmHg 89%
    22:00 +4°C° 0 mm 3 mps 752 mmHg 90%
    23:00 +4°C° 0.1 mm 3 mps 752 mmHg 91%

    Day after tomorrow, 21 February, Thursday

    Time Temperature Precipitation Wind Pressure Humidity
    00:00 +4°C° 0.1 mm 3 mps 753 mmHg 92%
    01:00 +4°C° 0.1 mm 3 mps 753 mmHg 93%
    02:00 +4°C° 0.1 mm 3 mps 752 mmHg 92%
    03:00 +4°C° 0.1 mm 3 mps 752 mmHg 91%
    04:00 +4°C° 0.1 mm 3 mps 751 mmHg 90%
    05:00 +4°C° 0.7 mm 4 mps 751 mmHg 91%
    06:00 +4°C° 0.7 mm 4 mps 751 mmHg 91%
    07:00 +3°C° 0.7 mm 5 mps 751 mmHg 92%
    08:00 +3°C° 0.7 mm 5 mps 751 mmHg 90%
    09:00 +5°C° 0.7 mm 5 mps 751 mmHg 89%
    10:00 +5°C° 0.7 mm 5 mps 751 mmHg 88%
    11:00 +4°C° 0.4 mm 6 mps 751 mmHg 88%
    12:00 +4°C° 0.4 mm 6 mps 750 mmHg 87%
    13:00 +5°C° 0.4 mm 6 mps 750 mmHg 87%
    14:00 +5°C° 0.4 mm 6 mps 750 mmHg 88%
    15:00 +5°C° 0.4 mm 6 mps 750 mmHg 89%
    16:00 +6°C° 0.4 mm 5 mps 750 mmHg 89%
    17:00 +6°C° 0.8 mm 5 mps 750 mmHg 90%
    18:00 +6°C° 0.8 mm 5 mps 751 mmHg 90%
    19:00 +6°C° 0.8 mm 5 mps 751 mmHg 90%
    20:00 +6°C° 0.2 mm 5 mps 751 mmHg 89%
    21:00 +6°C° 0.2 mm 5 mps 752 mmHg 89%
    22:00 +5°C° 0.2 mm 6 mps 752 mmHg 88%
    23:00 +5°C° 0.2 mm 5 mps 753 mmHg 88%

    22 February, Friday

    Time Temperature Precipitation Wind Pressure Humidity
    00:00 +5°C° 0.2 mm 5 mps 754 mmHg 87%
    01:00 +3°C° 0.2 mm 5 mps 755 mmHg 87%
    02:00 +2°C° 0 mm 5 mps 755 mmHg 84%
    03:00 0°C° 0 mm 4 mps 756 mmHg 82%
    04:00 -1°C° 0 mm 4 mps 757 mmHg 80%
    05:00 -1°C° 0 mm 4 mps 758 mmHg 78%
    06:00 -1°C° 0 mm 3 mps 760 mmHg 76%
    07:00 -1°C° 0 mm 3 mps 761 mmHg 75%
    08:00 -1°C° 0 mm 3 mps 762 mmHg 70%
    09:00 -1°C° 0 mm 3 mps 762 mmHg 65%
    10:00 -1°C° 0 mm 4 mps 763 mmHg 60%
    11:00 0°C° 0 mm 3 mps 764 mmHg 56%
    12:00 +1°C° 0 mm 3 mps 764 mmHg 52%
    13:00 +1°C° 0 mm 3 mps 765 mmHg 48%
    14:00 +2°C° 0 mm 2 mps 765 mmHg 47%
    15:00 +2°C° 0 mm 2 mps 765 mmHg 45%
    16:00 +2°C° 0 mm 2 mps 765 mmHg 44%
    17:00 +1°C° 0 mm 2 mps 766 mmHg 48%
    18:00 -1°C° 0 mm 2 mps 766 mmHg 52%
    19:00 -2°C° 0 mm 2 mps 766 mmHg 56%
    20:00 0°C° 0 mm 1 mps 766 mmHg 56%
    21:00 0°C° 0 mm 1 mps 767 mmHg 56%
    22:00 0°C° 0 mm 1 mps 767 mmHg 56%
    23:00 0°C° 0 mm 1 mps 767 mmHg 56%

    23 February, Saturday

    Time Temperature Precipitation Wind Pressure Humidity
    00:00 0°C° 0 mm 1 mps 767 mmHg 55%
    01:00 0°C° 0 mm 1 mps 767 mmHg 54%
    02:00 0°C° 0 mm 1 mps 767 mmHg 55%
    03:00 0°C° 0 mm 1 mps 767 mmHg 55%
    04:00 0°C° 0 mm 1 mps 766 mmHg 55%
    05:00 0°C° 0 mm 1 mps 766 mmHg 56%
    06:00 0°C° 0 mm 1 mps 766 mmHg 56%
    07:00 -1°C° 0 mm 1 mps 766 mmHg 56%
    08:00 +1°C° 0 mm 1 mps 766 mmHg 51%
    09:00 +2°C° 0 mm 1 mps 766 mmHg 47%
    10:00 +3°C° 0 mm 1 mps 766 mmHg 42%
    11:00 +3°C° 0 mm 1 mps 765 mmHg 42%
    12:00 +2°C° 0 mm 2 mps 765 mmHg 42%
    13:00 +3°C° 0 mm 2 mps 765 mmHg 42%
    14:00 +3°C° 0 mm 2 mps 765 mmHg 44%
    15:00 +3°C° 0 mm 2 mps 764 mmHg 47%
    16:00 +5°C° 0 mm 1 mps 764 mmHg 50%
    17:00 +4°C° 0 mm 1 mps 764 mmHg 56%
    18:00 +2°C° 0 mm 2 mps 764 mmHg 62%
    19:00 +1°C° 0 mm 2 mps 763 mmHg 68%
    20:00 +2°C° 0 mm 1 mps 763 mmHg 71%
    21:00 +2°C° 0 mm 1 mps 763 mmHg 74%
    22:00 +2°C° 0 mm 1 mps 763 mmHg 77%
    23:00 +2°C° 0 mm 1 mps 763 mmHg 82%

    24 February, Sunday

    Time Temperature Precipitation Wind Pressure Humidity
    00:00 -1°C° 0 mm 2 mps 763 mmHg 88%
    01:00 -1°C° 0 mm 2 mps 763 mmHg 94%
    02:00 -1°C° 0 mm 2 mps 763 mmHg 95%
    03:00 +1°C° 0 mm 1 mps 763 mmHg 96%
    04:00 +1°C° 0 mm 1 mps 763 mmHg 97%
    05:00 +1°C° 0 mm 1 mps 763 mmHg 97%
    06:00 +1°C° 0 mm 1 mps 763 mmHg 97%
    07:00 +2°C° 0 mm 1 mps 763 mmHg 97%
    08:00 +3°C° 0 mm 1 mps 764 mmHg 94%
    09:00 +3°C° 0 mm 1 mps 764 mmHg 91%
    10:00 +4°C° 0 mm 1 mps 764 mmHg 88%
    11:00 +5°C° 0 mm 1 mps 764 mmHg 85%
    12:00 +5°C° 0 mm 1 mps 764 mmHg 82%
    13:00 +6°C° 0 mm 1 mps 764 mmHg 79%
    14:00 +6°C° 0 mm 1 mps 764 mmHg 80%
    15:00 +6°C° 0 mm 1 mps 764 mmHg 80%
    16:00 +6°C° 0 mm 1 mps 764 mmHg 81%
    17:00 +5°C° 0 mm 1 mps 764 mmHg 85%
    18:00 +3°C° 0 mm 0 mps 764 mmHg 88%
    19:00 +2°C° 0 mm 0 mps 765 mmHg 92%
    20:00 +2°C° 0 mm 0 mps 765 mmHg 92%
    21:00 +2°C° 0 mm 0 mps 765 mmHg 93%
    22:00 +2°C° 0 mm 0 mps 765 mmHg 93%
    23:00 +1°C° 0 mm 0 mps 765 mmHg 94%
    Show more